Date,TemperatureHighF,TemperatureAvgF,TemperatureLowF,DewpointHighF,DewpointAvgF,DewpointLowF,HumidityHigh,HumidityAvg,HumidityLow,PressureMaxIn,PressureMinIn,WindSpeedMaxMPH,WindSpeedAvgMPH,GustSpeedMaxMPH,PrecipitationSumIn
2013-1-1,37.6,32.9,19.8,28.0,21.6,11.0,72,64,52,30.01,29.83,10,3,0,0.02
2013-1-2,28.3,21.6,12.8,18.0,13.2,8.0,85,70,58,30.19,30.00,7,2,0,0.00
2013-1-3,28.1,18.1,7.3,18.0,9.3,-1.0,83,69,56,30.22,30.07,6,2,0,0.00
2013-1-4,37.7,31.9,20.4,26.0,22.4,17.0,86,69,56,30.06,29.91,13,3,0,0.03
2013-1-5,40.7,32.4,24.0,27.0,23.0,20.0,88,69,53,30.29,29.96,11,3,0,0.00
2013-1-6,43.1,32.7,25.8,30.0,27.2,23.0,93,81,59,30.24,29.97,6,1,0,0.00
2013-1-7,39.2,32.8,22.0,31.0,25.9,20.0,91,77,58,30.41,30.05,9,2,0,0.00
2013-1-8,45.8,32.7,20.7,31.0,26.7,19.0,95,80,56,30.43,30.34,5,1,0,0.00
2013-1-9,43.8,33.1,23.2,36.0,29.4,22.0,95,86,73,30.41,30.12,7,1,0,0.00
2013-1-10,44.8,38.7,32.2,34.0,26.3,24.0,79,62,47,30.57,30.20,13,3,0,0.00
2013-1-11,35.9,32.2,26.9,35.0,28.9,24.0,97,88,72,30.55,30.16,3,0,0,0.36
2013-1-12,44.1,38.9,35.8,43.0,38.3,35.0,98,97,96,30.20,30.13,2,0,0,0.06
2013-1-13,44.0,40.2,36.7,44.0,39.8,36.0,98,98,98,30.18,30.02,2,0,0,0.01
2013-1-14,51.2,43.6,35.6,51.0,39.6,27.0,99,86,67,30.32,29.93,8,2,0,0.02
2013-1-15,37.3,34.5,31.8,29.0,26.8,25.0,81,74,65,30.36,30.25,6,2,0,0.01
2013-1-16,34.8,32.2,29.9,32.0,30.3,25.0,96,93,72,30.25,29.84,4,0,0,0.00
2013-1-17,40.5,35.1,27.7,32.0,28.3,17.0,91,76,65,30.13,29.90,7,3,0,0.28
2013-1-18,27.4,22.5,17.3,16.0,10.1,3.0,81,60,42,30.48,30.07,11,3,0,0.00
2013-1-19,44.2,34.0,19.5,31.0,24.0,14.0,83,67,54,30.40,29.91,5,1,0,0.06
2013-1-20,49.9,39.5,27.1,32.0,24.5,9.0,78,57,34,30.02,29.65,14,4,0,0.06
2013-1-21,29.2,25.4,20.4,23.0,14.9,9.0,90,66,47,30.10,29.82,6,1,0,0.00
2013-1-22,21.8,17.9,11.0,17.0,2.9,-5.0,91,53,39,30.18,29.81,13,5,0,0.00
2013-1-23,18.1,11.5,6.0,1.0,-2.1,-6.0,70,55,40,30.24,30.16,8,2,0,0.00
2013-1-24,21.5,11.8,2.9,3.0,-0.8,-3.0,79,59,39,30.37,30.17,13,3,0,0.00
2013-1-25,22.5,16.4,10.0,15.0,5.5,1.0,87,63,43,30.42,30.08,6,1,0,0.00
2013-1-26,25.0,18.0,12.4,15.0,8.3,4.0,86,67,48,30.37,30.06,12,3,0,0.00
2013-1-27,32.5,20.7,9.6,13.0,9.0,5.0,84,63,35,30.52,30.36,11,2,0,0.00
2013-1-28,33.3,26.4,18.1,32.0,22.0,10.0,95,84,68,30.52,30.01,2,0,0,0.00
2013-1-29,37.3,35.0,33.4,36.0,33.9,32.0,97,95,91,30.18,30.00,5,0,0,0.20
2013-1-30,53.2,41.8,34.0,53.0,41.3,33.0,100,98,97,30.13,29.39,5,0,0,0.08
2013-1-31,58.6,44.2,28.7,57.0,33.8,13.0,99,69,40,29.71,29.02,19,6,0,0.77
2013-2-1,31.1,26.5,22.2,15.0,11.0,6.0,65,53,38,30.19,29.71,13,4,0,0.00
2013-2-2,29.8,23.2,18.0,19.0,11.8,7.0,88,63,40,30.28,30.09,7,2,0,0.00
2013-2-3,31.1,22.9,14.9,20.0,17.0,13.0,92,79,57,30.08,29.80,5,1,0,0.04
2013-2-4,29.5,24.6,20.4,21.0,12.6,6.0,88,62,40,29.98,29.80,11,3,0,0.00
2013-2-5,29.4,25.5,21.0,24.0,21.0,13.0,91,83,70,30.02,29.93,4,1,0,0.01
2013-2-6,37.7,29.9,24.5,26.0,20.0,3.0,94,70,39,30.36,29.94,11,2,0,0.02
2013-2-7,32.2,24.2,16.3,17.0,9.5,2.0,78,55,37,30.54,30.35,6,1,0,0.00
2013-2-8,31.0,28.5,24.5,29.0,24.5,18.0,93,85,67,30.40,29.69,12,3,0,0.00
2013-2-9,27.8,23.4,16.5,23.0,14.4,5.0,93,71,46,30.34,29.77,19,8,0,0.01
2013-2-10,38.8,23.2,15.3,15.0,4.9,-2.0,79,48,20,30.49,30.34,9,3,0,0.06
2013-2-11,42.7,33.1,20.2,42.0,31.1,15.0,98,92,78,30.36,29.69,12,1,0,0.22
2013-2-12,44.3,38.7,35.3,38.0,29.5,26.0,97,71,56,29.95,29.70,12,3,0,0.03
2013-2-13,44.2,35.0,26.1,32.0,25.9,22.0,94,71,46,29.94,29.71,7,1,0,0.00
2013-2-14,45.2,33.6,25.6,31.0,26.9,24.0,95,79,47,30.01,29.73,6,1,0,0.07
2013-2-15,51.9,38.9,27.4,34.0,30.4,26.0,94,74,45,30.02,29.91,7,1,0,0.00
2013-2-16,38.9,32.0,27.8,33.0,23.7,17.0,94,73,56,29.98,29.74,10,3,0,0.04
2013-2-17,29.6,23.1,15.8,16.0,6.2,2.0,62,49,33,29.93,29.63,18,7,0,0.00
2013-2-18,35.0,23.4,14.9,15.0,7.5,3.0,74,52,32,30.23,29.93,11,3,0,0.00
2013-2-19,43.9,32.9,20.8,39.0,27.5,15.0,97,81,60,30.23,29.66,6,1,0,0.27
2013-2-20,37.4,29.5,23.7,31.0,16.6,10.0,79,59,50,29.94,29.67,21,6,0,0.00
2013-2-21,33.4,25.7,22.0,17.0,14.1,13.0,73,62,50,30.34,29.92,15,5,0,0.00
2013-2-22,38.1,29.9,21.5,28.0,21.7,15.0,83,72,56,30.43,30.30,9,2,0,0.00
2013-2-23,37.9,34.6,32.8,37.0,32.8,28.0,96,92,83,30.30,29.86,3,0,0,0.19
2013-2-24,41.3,36.4,32.4,37.0,32.8,25.0,97,87,72,29.96,29.76,9,3,0,0.00
2013-2-25,43.9,36.1,30.8,29.0,27.2,25.0,87,71,53,30.27,29.96,13,3,0,0.00
2013-2-26,43.3,34.6,26.3,31.0,27.8,24.0,93,77,54,30.34,30.02,7,1,0,0.06
2013-2-27,42.8,38.8,33.7,42.0,37.4,31.0,97,94,91,30.01,29.55,9,2,0,1.08
2013-2-28,47.3,38.6,32.7,39.0,34.9,32.0,98,87,62,29.64,29.55,6,1,0,0.02
2013-3-1,43.0,37.9,34.7,34.0,30.9,27.0,90,76,59,29.78,29.60,9,4,0,0.00
2013-3-2,38.0,33.9,28.9,28.0,26.1,24.0,82,73,65,29.78,29.70,11,4,0,0.00
2013-3-3,33.7,29.8,27.1,27.0,22.3,19.0,83,74,62,29.75,29.68,10,5,0,0.00
2013-3-4,40.1,31.8,26.8,25.0,21.9,20.0,78,68,52,29.89,29.74,13,5,0,0.00
2013-3-5,47.0,36.7,29.1,30.0,26.5,23.0,80,67,50,30.05,29.89,13,4,0,0.00
2013-3-6,40.4,37.7,35.9,36.0,31.4,28.0,88,78,68,30.03,29.95,12,3,0,0.01
2013-3-7,36.5,34.2,31.5,33.0,29.8,27.0,94,84,73,30.10,29.98,15,6,0,0.02
2013-3-8,38.2,33.5,29.6,31.0,28.7,25.0,95,83,65,30.22,30.00,13,6,19,0.13
2013-3-9,53.2,38.8,30.7,29.0,26.0,24.0,85,62,35,30.35,30.21,10,4,20,0.14
2013-3-10,52.1,37.6,25.1,35.0,29.9,24.0,95,76,48,30.41,30.30,7,1,10,0.00
2013-3-11,54.0,43.6,35.4,45.0,38.9,33.0,95,84,63,30.33,30.11,6,1,9,0.00
2013-3-12,52.9,49.0,39.9,52.0,47.5,37.0,98,94,87,30.11,29.68,14,2,19,1.00
2013-3-13,49.0,40.5,34.4,36.0,29.9,23.0,87,68,39,29.88,29.78,11,3,18,0.00
2013-3-14,35.2,31.3,26.6,30.0,16.9,10.0,83,56,42,29.93,29.84,15,5,23,0.00
2013-3-15,41.3,33.2,24.0,31.0,20.0,11.0,79,59,41,29.96,29.73,13,3,16,0.00
2013-3-16,37.7,32.8,28.2,29.0,24.1,17.0,87,71,47,29.92,29.77,9,2,14,0.00
2013-3-17,37.5,30.5,24.2,27.0,16.3,9.0,89,58,32,30.34,29.93,11,3,17,0.00
2013-3-18,35.2,28.4,20.2,28.0,15.3,8.0,93,60,36,30.45,30.11,5,1,13,0.00
2013-3-19,38.8,33.8,29.4,35.0,31.7,28.0,95,91,85,30.10,29.70,10,2,14,0.34
2013-3-20,40.9,33.2,27.3,31.0,21.8,18.0,89,64,41,29.87,29.79,14,3,20,0.10
2013-3-21,38.7,32.3,27.2,25.0,18.9,14.0,85,60,39,29.85,29.64,9,2,13,0.03
2013-3-22,38.7,31.2,22.9,25.0,20.0,15.0,75,64,49,29.86,29.71,12,3,18,0.00
2013-3-23,44.5,37.1,31.9,25.0,22.0,19.0,70,56,37,29.91,29.78,14,5,25,0.00
2013-3-24,44.8,36.0,29.1,28.0,23.5,19.0,75,61,47,29.94,29.74,11,2,17,0.00
2013-3-25,44.7,38.8,32.7,29.0,26.8,25.0,78,63,49,29.75,29.47,8,2,18,0.00
2013-3-26,48.9,40.2,30.9,33.0,28.5,25.0,79,64,47,29.86,29.60,10,3,17,0.00
2013-3-27,52.2,40.2,27.9,30.0,25.4,23.0,84,58,36,29.96,29.86,10,3,17,0.00
2013-3-28,48.8,41.4,35.4,37.0,31.4,26.0,78,68,55,30.11,29.95,10,3,15,0.00
2013-3-29,53.2,44.6,37.9,34.0,30.4,29.0,73,59,39,30.13,30.04,9,3,17,0.00
2013-3-30,57.1,42.7,31.9,33.0,27.6,21.0,88,60,26,30.16,30.06,13,1,14,0.00
2013-3-31,55.8,42.6,29.3,42.0,30.3,23.0,94,64,36,30.15,29.70,11,2,14,0.10
2013-4-1,60.4,45.2,34.6,46.0,35.9,13.0,97,73,37,29.89,29.60,15,3,23,0.01
2013-4-2,40.9,34.7,29.6,19.0,14.6,10.0,61,45,30,30.05,29.90,16,5,25,0.00
2013-4-3,44.9,36.4,29.9,18.0,15.2,12.0,58,43,29,30.29,30.05,21,5,23,0.00
2013-4-4,55.0,41.1,28.0,29.0,20.6,14.0,72,47,25,30.38,30.10,9,2,17,0.00
2013-4-5,61.1,45.8,36.1,31.0,25.8,19.0,81,49,25,30.08,29.72,14,3,21,0.00
2013-4-6,51.7,39.0,31.1,24.0,15.3,6.0,63,41,16,30.33,29.99,13,4,21,0.00
2013-4-7,56.7,46.2,31.2,42.0,32.8,20.0,90,62,39,30.32,30.02,10,3,16,0.00
2013-4-8,70.0,53.9,38.7,45.0,40.4,37.0,97,65,34,30.09,29.99,8,1,11,0.00
2013-4-9,75.5,61.5,48.0,52.0,46.3,42.0,93,62,31,30.02,29.91,19,3,25,0.00
2013-4-10,66.8,56.8,48.7,55.0,50.8,44.0,96,81,62,29.96,29.83,9,1,17,0.19
2013-4-11,58.1,51.5,45.9,55.0,45.6,33.0,97,81,61,30.09,29.81,7,2,11,0.00
2013-4-12,45.6,40.5,38.0,39.0,36.5,33.0,94,86,65,30.09,29.77,8,2,14,0.41
2013-4-13,53.7,45.5,37.3,40.0,36.9,35.0,94,74,51,29.96,29.78,6,1,11,0.07
2013-4-14,52.1,45.0,37.0,38.0,32.1,27.0,87,63,41,30.24,29.95,14,3,21,0.00
2013-4-15,60.5,46.3,34.6,38.0,32.8,29.0,83,62,39,30.40,30.25,4,1,10,0.00
2013-4-16,64.9,52.3,39.8,53.0,45.9,34.0,93,79,60,30.39,30.12,7,1,12,0.04
2013-4-17,66.1,55.4,45.1,53.0,41.0,35.0,94,62,33,30.31,30.13,16,3,19,0.01
2013-4-18,62.3,51.1,39.9,48.0,40.1,34.0,93,68,39,30.37,30.14,8,1,15,0.00
2013-4-19,71.4,61.7,51.8,62.0,57.9,48.0,98,87,72,30.13,29.66,8,2,20,0.08
2013-4-20,61.7,50.3,40.6,60.0,36.4,26.0,95,63,34,30.30,29.66,12,4,24,0.28
2013-4-21,54.8,42.2,32.3,30.0,25.1,20.0,73,53,32,30.64,30.31,11,3,17,0.00
2013-4-22,57.0,44.9,33.3,37.0,31.8,25.0,90,64,33,30.70,30.54,6,1,12,0.00
2013-4-23,48.4,42.3,36.5,41.0,36.4,30.0,90,80,74,30.54,30.14,5,2,11,0.00
2013-4-24,74.1,54.7,40.2,51.0,44.9,38.0,92,72,44,30.14,29.82,5,2,11,0.00
2013-4-25,63.8,53.3,42.2,51.0,35.6,24.0,92,54,22,30.28,29.85,10,3,20,0.00
2013-4-26,63.8,50.5,36.5,41.0,33.2,30.0,81,54,32,30.44,30.28,10,2,13,0.00
2013-4-27,68.1,54.0,39.4,37.0,32.5,28.0,73,47,23,30.44,30.28,6,2,14,0.00
2013-4-28,69.7,54.5,39.1,46.0,38.7,33.0,90,58,36,30.33,30.21,7,1,11,0.00
2013-4-29,58.2,53.7,49.3,48.0,43.5,37.0,83,69,58,30.26,30.21,3,0,7,0.00
2013-4-30,68.1,57.1,46.2,45.0,37.8,30.0,86,54,24,30.35,30.24,8,1,11,0.00
2013-5-1,70.7,55.3,38.5,45.0,36.9,30.0,79,54,25,30.50,30.35,7,1,10,0.00
2013-5-2,78.2,60.1,42.4,47.0,42.9,40.0,94,58,27,30.48,30.30,7,1,10,0.00
2013-5-3,69.7,57.9,47.9,45.0,39.5,34.0,81,52,29,30.48,30.34,4,1,9,0.00
2013-5-4,72.8,56.4,43.3,48.0,43.9,41.0,95,67,34,30.39,30.21,5,1,11,0.00
2013-5-5,69.1,52.6,41.0,48.0,41.5,38.0,93,69,32,30.32,30.20,5,1,10,0.00
2013-5-6,71.4,55.5,41.3,55.0,47.4,39.0,95,76,50,30.29,30.14,6,1,9,0.00
2013-5-7,74.6,60.7,46.0,58.0,52.1,45.0,97,76,46,30.19,30.09,9,1,13,0.00
2013-5-8,63.8,60.0,56.3,63.0,58.5,55.0,97,95,89,30.14,30.00,4,0,9,0.41
2013-5-9,62.9,57.7,53.7,60.0,56.1,53.0,97,94,83,30.03,29.89,5,0,9,0.14
2013-5-10,76.6,63.0,49.6,61.0,55.2,49.0,99,78,45,30.00,29.90,5,0,9,0.00
2013-5-11,64.9,62.0,59.0,63.0,60.4,57.0,98,94,83,29.90,29.70,3,0,9,0.27
2013-5-12,65.0,58.3,48.9,60.0,45.7,28.0,98,68,28,29.90,29.65,11,2,20,0.00
2013-5-13,52.9,46.4,38.0,35.0,31.5,27.0,83,57,41,30.11,29.90,10,2,17,0.00
2013-5-14,58.9,47.2,37.0,34.0,31.8,26.0,85,59,29,30.12,30.02,9,1,13,0.00
2013-5-15,65.6,49.8,35.4,55.0,43.8,32.0,94,81,57,30.09,29.70,8,0,10,0.04
2013-5-16,80.1,64.7,49.8,54.0,46.6,39.0,98,60,24,29.83,29.70,12,2,18,0.00
2013-5-17,68.3,59.5,49.5,46.0,42.7,38.0,80,55,37,30.23,29.84,9,2,20,0.00
2013-5-18,68.5,55.8,43.8,52.0,47.0,40.0,90,74,50,30.32,30.23,10,1,12,0.00
2013-5-19,56.8,55.2,52.1,56.0,53.9,49.0,97,95,90,30.34,30.20,3,0,6,0.28
2013-5-20,79.2,65.5,55.5,69.0,61.6,55.0,98,88,65,30.19,29.96,6,0,12,0.00
2013-5-21,86.3,72.5,59.4,72.0,66.4,59.0,99,83,58,29.98,29.81,6,1,11,0.00
2013-5-22,78.7,67.0,57.7,72.0,64.2,56.0,97,91,77,29.93,29.82,4,0,9,0.63
2013-5-23,72.1,66.7,64.7,70.0,65.8,64.0,98,97,92,29.89,29.76,4,0,9,3.08
2013-5-24,64.8,55.1,44.3,64.0,53.8,42.0,98,95,86,29.93,29.66,12,2,16,0.47
2013-5-25,47.7,44.9,42.7,45.0,42.2,39.0,95,90,75,29.95,29.87,12,4,18,0.62
2013-5-26,60.1,51.3,44.1,46.0,41.1,39.0,87,70,48,30.19,29.89,10,3,22,0.01
2013-5-27,74.3,58.4,44.0,50.0,41.7,38.0,85,57,29,30.23,30.11,8,1,15,0.00
2013-5-28,69.0,55.2,45.0,57.0,49.7,42.0,97,83,50,30.23,30.16,4,0,10,0.15
2013-5-29,79.3,65.9,56.8,71.0,62.9,56.0,98,90,74,30.16,29.99,5,1,9,0.02
2013-5-30,88.6,75.0,60.8,72.0,66.2,60.0,98,77,49,30.11,30.04,4,1,11,0.00
2013-5-31,90.0,75.5,62.9,73.0,66.6,62.0,98,77,44,30.12,29.98,8,1,9,0.00
2013-6-1,88.0,78.2,66.2,73.0,68.3,63.0,89,73,53,30.01,29.88,3,1,9,0.00
2013-6-2,85.3,76.4,68.8,73.0,69.1,67.0,94,79,63,29.90,29.73,7,1,11,0.00
2013-6-3,76.0,69.4,60.2,69.0,63.6,49.0,97,82,64,29.90,29.78,7,1,11,0.78
2013-6-4,74.3,60.6,51.9,53.0,46.4,43.0,78,61,38,30.13,29.90,7,2,13,0.00
2013-6-5,73.1,61.8,50.2,54.0,48.3,43.0,81,63,44,30.23,30.11,8,1,9,0.00
2013-6-6,68.7,58.7,49.4,59.0,53.6,48.0,96,84,63,30.18,30.05,4,0,8,0.18
2013-6-7,60.0,57.7,54.9,59.0,56.9,54.0,98,97,96,30.05,29.72,4,1,8,2.26
2013-6-8,74.3,63.3,53.9,65.0,58.5,53.0,97,85,65,30.06,29.64,6,2,16,0.94
2013-6-9,79.0,65.9,54.8,64.0,58.2,54.0,98,79,50,30.18,30.06,4,1,9,0.00
2013-6-10,70.0,61.6,57.7,65.0,59.8,56.0,98,94,84,30.19,29.91,3,0,9,1.04
2013-6-11,76.2,65.8,59.3,69.0,62.4,56.0,99,89,72,29.90,29.59,6,1,16,0.61
2013-6-12,73.5,64.8,55.7,58.0,54.8,52.0,91,71,51,29.86,29.66,8,2,20,0.00
2013-6-13,57.9,55.5,52.0,57.0,54.3,51.0,97,96,91,29.85,29.59,5,1,9,1.73
2013-6-14,70.0,58.7,50.9,65.0,55.5,50.0,97,89,68,29.87,29.60,6,1,6,0.62
2013-6-15,78.7,65.0,54.5,60.0,54.6,50.0,97,73,39,30.01,29.88,7,1,12,0.00
2013-6-16,76.6,65.1,51.4,65.0,57.9,49.0,94,78,53,29.99,29.75,8,1,13,0.00
2013-6-17,83.8,69.8,59.1,69.0,62.1,58.0,98,79,44,29.93,29.82,8,1,15,0.00
2013-6-18,79.2,65.7,58.2,71.0,62.4,57.0,97,90,69,29.93,29.82,4,0,8,0.36
2013-6-19,73.5,63.2,54.0,60.0,53.1,45.0,96,73,39,30.19,29.91,4,1,9,0.00
2013-6-20,76.6,63.4,48.5,64.0,54.4,46.0,93,74,47,30.28,30.19,3,0,8,0.00
2013-6-21,80.7,69.4,59.3,67.0,60.1,55.0,88,73,57,30.29,30.21,5,1,9,0.00
2013-6-22,81.4,70.6,58.4,67.0,60.8,56.0,92,72,53,30.26,30.12,6,1,11,0.00
2013-6-23,86.7,75.2,63.9,72.0,66.2,57.0,91,74,51,30.18,30.04,7,1,12,0.00
2013-6-24,88.7,76.2,67.1,76.0,69.5,65.0,97,81,58,30.06,29.92,8,1,15,0.71
2013-6-25,86.8,74.5,65.1,77.0,70.0,64.0,99,87,58,30.00,29.78,6,1,12,0.01
2013-6-26,78.4,74.0,68.3,72.0,69.7,67.0,96,86,77,29.84,29.76,5,1,9,0.01
2013-6-27,78.6,71.0,65.7,73.0,69.1,65.0,98,94,80,29.82,29.59,5,0,8,0.49
2013-6-28,81.7,74.4,69.4,73.0,70.7,69.0,98,89,70,29.58,29.46,8,1,10,0.19
2013-6-29,81.9,73.4,65.9,72.0,68.1,65.0,98,84,59,29.71,29.49,7,1,11,0.00
2013-6-30,82.0,73.7,67.7,75.0,71.1,67.0,97,91,78,29.92,29.71,4,0,11,0.00
2013-7-1,73.8,72.1,69.6,73.0,70.9,69.0,98,96,91,30.06,29.91,6,0,8,0.43
2013-7-2,80.6,74.5,71.2,75.0,72.6,71.0,98,94,82,30.17,30.06,3,0,8,0.03
2013-7-3,83.3,76.7,71.7,76.0,72.5,70.0,95,87,75,30.23,30.16,8,1,16,0.00
2013-7-4,88.0,79.7,72.6,78.0,74.1,71.0,97,84,65,30.23,30.13,7,1,10,0.00
2013-7-5,89.7,80.8,73.4,78.0,73.7,71.0,93,80,62,30.20,30.07,6,1,11,0.00
2013-7-6,89.3,80.3,74.1,77.0,73.3,72.0,92,80,61,30.11,30.01,7,1,11,0.00
2013-7-7,91.0,80.2,72.1,79.0,74.6,70.0,96,84,60,30.05,29.91,7,1,10,0.00
2013-7-8,86.6,77.8,70.8,74.0,69.2,66.0,88,75,60,30.03,29.94,7,1,12,0.00
2013-7-9,84.2,73.9,66.6,74.0,69.7,65.0,97,87,68,30.07,30.00,6,0,7,0.01
2013-7-10,82.9,75.3,70.9,78.0,73.3,70.0,97,93,79,30.01,29.79,6,0,10,0.55
2013-7-11,80.9,74.1,67.2,73.0,70.2,63.0,98,88,67,29.94,29.79,4,0,9,0.01
2013-7-12,77.9,71.3,65.2,70.0,64.6,60.0,90,80,68,30.16,29.93,4,1,8,0.02
2013-7-13,74.8,70.0,64.7,72.0,67.7,62.0,96,92,88,30.30,30.16,3,0,5,0.05
2013-7-14,89.5,78.9,72.1,79.0,73.9,71.0,98,86,66,30.32,30.22,6,1,11,0.00
2013-7-15,89.4,79.6,73.5,76.0,72.8,70.0,94,81,58,30.23,30.13,5,1,8,0.00
2013-7-16,89.7,80.5,72.7,74.0,69.5,66.0,85,70,48,30.20,30.13,4,1,8,0.00
2013-7-17,90.2,80.1,70.2,78.0,72.2,68.0,94,78,52,30.20,30.04,4,0,9,0.00
2013-7-18,91.7,82.6,74.3,80.0,74.4,71.0,91,77,57,30.05,29.94,5,1,11,0.00
2013-7-19,92.8,83.3,73.1,78.0,75.0,72.0,96,77,57,29.96,29.76,12,1,12,0.00
2013-7-20,88.9,80.5,71.7,78.0,74.0,69.0,92,81,59,29.85,29.70,5,1,10,0.15
2013-7-21,83.7,74.6,68.2,71.0,67.2,64.0,92,78,57,29.98,29.85,4,0,8,0.00
2013-7-22,81.1,73.1,65.4,74.0,69.8,64.0,96,89,78,29.98,29.83,7,0,7,0.05
2013-7-23,83.8,75.2,71.9,74.0,72.2,71.0,98,91,69,29.82,29.55,6,0,11,1.16
2013-7-24,76.9,71.9,62.4,71.0,65.6,54.0,97,81,65,29.96,29.61,9,1,10,0.00
2013-7-25,66.5,62.5,58.4,61.0,56.1,52.0,92,80,73,30.09,29.96,4,1,8,0.02
2013-7-26,78.4,68.3,61.8,68.0,62.5,60.0,95,82,61,30.06,29.99,4,1,9,0.00
2013-7-27,80.6,69.5,60.6,68.0,63.4,60.0,98,82,54,30.06,29.97,4,0,9,0.00
2013-7-28,77.9,69.4,63.2,69.0,66.1,62.0,97,90,75,30.01,29.94,3,0,9,0.07
2013-7-29,81.4,72.5,65.1,69.0,65.8,58.0,98,81,54,30.09,29.97,7,1,12,0.00
2013-7-30,76.4,68.1,58.6,64.0,59.2,55.0,92,74,58,30.16,30.09,4,1,10,0.00
2013-7-31,78.5,68.3,58.6,67.0,60.5,56.0,95,78,46,30.17,30.05,4,0,8,0.00
2013-8-1,73.0,65.4,61.8,67.0,64.0,61.0,98,95,81,30.06,29.85,3,0,10,0.37
2013-8-2,79.4,70.5,63.6,68.0,64.3,60.0,98,82,53,29.90,29.80,8,1,12,0.03
2013-8-3,76.7,68.5,62.9,69.0,63.8,59.0,95,85,72,29.90,29.82,4,1,11,0.01
2013-8-4,75.3,65.2,56.4,63.0,58.5,54.0,96,80,53,29.98,29.84,5,1,13,0.02
2013-8-5,74.5,63.0,55.1,57.0,52.3,47.0,92,70,41,30.06,29.96,6,1,11,0.00
2013-8-6,77.0,64.2,51.5,63.0,56.4,49.0,94,77,55,30.14,30.07,4,0,9,0.00
2013-8-7,75.5,66.5,56.9,66.0,61.8,56.0,97,85,65,30.18,30.08,3,0,9,0.00
2013-8-8,80.2,72.8,69.0,73.0,69.5,66.0,95,89,75,30.08,30.01,5,1,7,0.00
2013-8-9,78.4,73.3,70.8,76.0,72.1,70.0,98,96,90,30.02,29.78,5,1,13,2.54
2013-8-10,80.1,71.2,60.7,70.0,64.2,57.0,98,80,48,30.06,29.85,7,1,17,0.01
2013-8-11,76.6,65.7,55.3,64.0,56.9,52.0,91,75,51,30.13,30.03,4,0,8,0.00
2013-8-12,79.7,69.3,60.7,66.0,61.6,58.0,97,78,51,30.05,29.93,4,0,7,0.00
2013-8-13,72.0,67.8,63.5,69.0,66.4,61.0,98,95,87,29.94,29.70,2,0,5,0.21
2013-8-14,71.2,63.6,56.0,64.0,54.9,51.0,96,75,54,30.04,29.75,9,2,18,0.00
2013-8-15,73.9,61.3,51.4,61.0,53.8,50.0,96,79,48,30.16,30.04,4,0,11,0.00
2013-8-16,76.2,63.4,52.6,62.0,56.2,51.0,97,80,48,30.22,30.14,3,0,8,0.00
2013-8-17,77.6,65.7,55.3,67.0,59.6,54.0,97,82,52,30.30,30.22,3,0,6,0.00
2013-8-18,74.4,65.6,59.0,68.0,61.8,58.0,96,88,69,30.28,30.14,2,0,4,0.00
2013-8-19,76.3,68.2,60.1,67.0,62.9,58.0,96,84,63,30.14,30.02,5,0,8,0.00
2013-8-20,81.5,71.1,61.5,69.0,64.0,60.0,97,80,50,30.14,30.04,8,1,10,0.00
2013-8-21,83.8,71.1,61.1,71.0,64.5,60.0,98,82,51,30.19,30.05,6,0,11,0.00
2013-8-22,77.2,70.5,64.1,72.0,68.2,63.0,98,92,80,30.07,29.87,5,0,9,0.20
2013-8-23,76.7,69.9,59.8,69.0,61.6,56.0,95,76,54,30.13,29.88,4,1,12,0.00
2013-8-24,76.5,64.7,56.1,62.0,55.2,50.0,92,73,50,30.36,30.14,5,1,8,0.00
2013-8-25,79.3,65.2,53.2,62.0,56.5,52.0,97,77,46,30.41,30.22,6,0,9,0.00
2013-8-26,74.6,68.6,62.6,69.0,63.5,58.0,96,84,75,30.23,29.92,6,1,10,0.08
2013-8-27,80.9,71.9,67.2,71.0,68.4,66.0,98,89,67,29.91,29.82,6,1,9,0.58
2013-8-28,83.9,71.2,64.2,73.0,67.7,63.0,98,89,64,29.92,29.84,7,0,14,0.00
2013-8-29,76.2,69.9,65.3,69.0,66.5,64.0,97,89,75,30.04,29.92,3,0,5,0.01
2013-8-30,81.2,71.9,66.0,72.0,67.3,63.0,95,86,66,30.04,29.85,5,1,11,0.00
2013-8-31,80.3,75.1,71.7,75.0,71.7,69.0,96,89,81,29.85,29.78,5,1,10,0.00
2013-9-1,78.8,74.2,70.7,76.0,72.7,69.0,98,95,85,29.85,29.80,3,0,6,0.24
2013-9-2,78.0,73.3,69.7,74.0,71.5,68.0,98,94,85,29.83,29.69,3,0,9,0.05
2013-9-3,75.2,68.3,61.7,68.0,64.4,59.0,97,88,68,29.88,29.72,3,0,10,0.00
2013-9-4,77.8,66.1,56.7,64.0,58.7,56.0,96,79,51,29.99,29.87,6,1,12,0.00
2013-9-5,70.4,63.4,54.4,61.0,53.7,44.0,94,73,43,30.17,29.91,9,1,10,0.00
2013-9-6,66.9,56.4,47.6,51.0,45.9,43.0,88,70,43,30.27,30.14,8,1,9,0.00
2013-9-7,75.1,60.3,46.5,61.0,52.8,44.0,97,78,46,30.15,29.89,4,0,9,0.00
2013-9-8,74.1,66.3,55.5,64.0,55.3,46.0,88,69,41,30.10,29.82,6,1,13,0.00
2013-9-9,69.7,57.6,45.2,56.0,49.2,43.0,93,75,51,30.26,30.11,4,0,11,0.00
2013-9-10,78.5,68.8,58.5,74.0,66.6,56.0,98,92,83,30.19,30.05,7,1,14,0.09
2013-9-11,90.8,78.8,68.9,80.0,73.5,68.0,98,84,63,30.10,29.96,5,1,10,0.00
2013-9-12,83.4,72.7,67.4,76.0,69.8,66.0,97,91,74,29.98,29.68,6,1,11,0.60
2013-9-13,71.9,65.5,55.5,67.0,61.2,49.0,98,86,69,29.84,29.63,9,1,10,0.04
2013-9-14,63.5,56.4,49.3,54.0,49.4,47.0,91,78,64,30.13,29.84,8,1,10,0.00
2013-9-15,68.8,55.3,44.7,55.0,48.0,43.0,96,79,44,30.22,30.10,5,0,8,0.00
2013-9-16,66.2,58.3,50.9,56.0,53.1,46.0,94,83,65,30.27,30.05,4,1,12,0.00
2013-9-17,63.7,51.1,41.9,48.0,42.5,38.0,93,75,42,30.45,30.28,4,0,8,0.00
2013-9-18,70.3,53.9,41.8,53.0,46.3,41.0,98,79,44,30.38,30.19,3,0,8,0.00
2013-9-19,74.4,57.6,45.4,59.0,51.4,44.0,98,82,45,30.21,30.07,3,0,6,0.00
2013-9-20,76.5,60.3,48.2,61.0,54.7,47.0,98,84,51,30.11,30.00,3,0,5,0.00
2013-9-21,71.8,64.0,55.4,67.0,61.5,54.0,97,91,82,30.03,29.66,9,1,12,0.24
2013-9-22,66.9,60.1,51.8,66.0,53.8,42.0,97,81,62,29.91,29.64,6,1,15,0.78
2013-9-23,60.5,52.1,43.1,47.0,43.1,39.0,92,72,54,30.07,29.91,9,2,14,0.00
2013-9-24,68.5,53.1,41.8,53.0,44.7,39.0,92,75,46,30.07,29.88,8,1,13,0.00
2013-9-25,68.5,57.0,48.2,56.0,49.0,45.0,95,76,53,29.97,29.89,4,1,9,0.00
2013-9-26,66.3,57.8,50.2,55.0,52.4,49.0,95,83,60,30.13,29.97,6,0,7,0.00
2013-9-27,61.5,54.8,48.2,56.0,51.5,47.0,97,89,73,30.30,30.13,2,0,5,0.00
2013-9-28,71.5,57.9,48.6,57.0,52.1,48.0,97,83,54,30.36,30.27,3,0,7,0.00
2013-9-29,69.0,56.3,47.8,58.0,52.2,47.0,100,87,62,30.27,30.10,4,0,8,0.00
2013-9-30,69.6,56.3,46.1,59.0,51.2,45.0,98,85,55,30.12,29.98,8,0,8,0.00
2013-10-1,75.1,60.2,49.0,62.0,55.0,48.0,98,85,55,30.02,29.91,4,0,8,0.00
2013-10-2,78.7,63.3,52.2,67.0,58.5,51.0,98,86,62,30.02,29.91,8,1,12,0.00
2013-10-3,74.5,61.2,49.5,60.0,54.3,48.0,95,80,43,30.14,30.02,3,0,7,0.00
2013-10-4,80.2,65.7,55.9,69.0,61.1,55.0,97,86,64,30.09,29.98,5,0,11,0.00
2013-10-5,74.7,65.7,61.1,67.0,62.5,59.0,95,89,76,30.11,30.04,2,0,7,0.18
2013-10-6,64.6,61.3,59.1,64.0,60.8,58.0,98,97,96,30.15,30.07,3,0,6,0.51
2013-10-7,71.4,64.3,56.7,69.0,63.2,53.0,99,96,88,30.07,29.77,5,1,20,0.59
2013-10-8,63.1,54.5,47.1,54.0,46.5,42.0,95,76,51,30.38,29.97,7,1,11,0.01
2013-10-9,61.6,52.0,44.6,51.0,45.6,42.0,94,80,55,30.46,30.35,2,0,8,0.00
2013-10-10,60.4,53.5,48.1,56.0,49.6,45.0,94,86,81,30.35,30.15,1,0,3,0.00
2013-10-11,67.7,60.4,54.1,61.0,55.0,48.0,92,82,69,30.15,30.07,4,0,8,0.00
2013-10-12,69.5,58.4,49.3,58.0,51.5,46.0,91,79,57,30.34,30.13,5,1,10,0.00
2013-10-13,63.8,55.3,47.3,52.0,49.7,46.0,95,82,63,30.42,30.33,3,0,7,0.00
2013-10-14,65.9,52.3,42.7,53.0,47.9,42.0,98,86,59,30.40,30.25,3,0,5,0.00
2013-10-15,71.1,56.5,47.4,58.0,50.5,45.0,98,82,59,30.29,30.14,4,0,8,0.00
2013-10-16,61.8,54.7,47.3,56.0,51.2,45.0,96,88,74,30.15,29.94,3,0,6,0.00
2013-10-17,74.0,64.1,56.9,61.0,59.0,56.0,96,85,57,29.93,29.69,5,1,9,0.00
2013-10-18,66.2,58.6,46.3,62.0,49.2,42.0,96,73,46,29.98,29.66,8,2,18,0.01
2013-10-19,63.7,52.4,41.6,53.0,45.4,40.0,95,79,47,30.00,29.75,4,0,11,0.06
2013-10-20,60.5,51.8,43.0,53.0,42.2,37.0,95,72,42,30.07,29.75,14,2,19,0.02
2013-10-21,64.6,50.1,39.0,46.0,41.2,38.0,97,75,40,30.16,30.00,7,1,11,0.00
2013-10-22,63.8,50.9,42.7,52.0,46.0,40.0,98,84,61,30.00,29.75,5,0,13,0.00
2013-10-23,52.7,44.2,35.6,40.0,36.6,32.0,95,76,46,29.83,29.63,4,1,11,0.00
2013-10-24,51.8,43.9,37.3,38.0,32.4,28.0,87,66,42,29.97,29.74,8,2,18,0.00
2013-10-25,49.7,42.0,35.8,35.0,32.1,30.0,85,69,51,30.22,29.97,9,1,19,0.00
2013-10-26,53.4,42.9,31.8,36.0,32.9,31.0,96,71,43,30.21,29.90,10,1,19,0.00
2013-10-27,55.7,47.1,39.3,38.0,34.3,31.0,79,63,42,30.12,29.85,11,2,18,0.00
2013-10-28,59.3,45.2,33.4,37.0,34.2,31.0,92,68,43,30.35,30.11,13,1,16,0.00
2013-10-29,50.3,41.8,34.6,34.0,30.1,27.0,83,65,45,30.45,30.35,5,1,9,0.00
2013-10-30,52.2,42.8,34.6,43.0,36.5,30.0,96,79,65,30.38,30.21,2,0,3,0.00
2013-10-31,61.4,50.5,38.3,59.0,49.3,37.0,98,95,90,30.26,29.82,4,0,8,0.24
2013-11-1,67.4,60.4,49.6,63.0,56.5,49.0,98,87,62,29.81,29.52,12,2,29,0.25
2013-11-2,65.5,52.5,43.6,50.0,45.8,42.0,97,80,48,29.79,29.62,6,1,13,0.00
2013-11-3,47.3,40.4,31.0,44.0,32.5,20.0,92,74,60,30.47,29.79,11,3,21,0.01
2013-11-4,45.1,34.1,28.0,25.0,20.8,17.0,78,60,32,30.70,30.48,8,1,11,0.00
2013-11-5,52.7,40.9,29.6,40.0,32.9,24.0,90,74,58,30.71,30.52,6,0,10,0.00
2013-11-6,58.4,48.7,37.3,50.0,43.6,36.0,98,83,64,30.52,30.08,4,1,8,0.00
2013-11-7,60.4,51.7,36.7,57.0,48.7,34.0,93,89,76,30.07,29.73,10,2,14,0.14
2013-11-8,46.5,39.3,31.6,35.0,30.8,28.0,92,72,51,30.18,29.90,9,2,17,0.00
2013-11-9,47.9,39.6,31.5,35.0,30.2,27.0,89,70,46,30.28,30.02,6,1,12,0.00
2013-11-10,56.5,45.9,39.8,41.0,36.3,31.0,84,70,48,30.01,29.80,15,3,21,0.02
2013-11-11,51.5,45.0,34.9,34.0,31.1,29.0,83,59,42,30.18,29.95,15,2,18,0.00
2013-11-12,48.9,34.2,27.3,38.0,26.5,19.0,92,74,56,30.28,29.94,10,3,18,0.08
2013-11-13,36.1,28.8,23.5,21.0,18.2,15.0,77,65,42,30.38,30.26,15,3,15,0.00
2013-11-14,51.8,40.2,29.2,26.0,20.7,18.0,75,48,27,30.25,30.13,14,3,16,0.00
2013-11-15,57.5,40.7,30.0,32.0,25.5,21.0,83,58,27,30.25,30.16,4,0,7,0.00
2013-11-16,60.0,46.0,34.6,41.0,36.5,28.0,95,72,38,30.34,30.24,8,1,16,0.00
2013-11-17,59.0,50.5,39.4,58.0,49.7,38.0,98,97,95,30.30,29.80,6,1,8,0.06
2013-11-18,62.8,57.0,46.6,60.0,43.3,28.0,96,63,37,29.79,29.58,14,3,19,0.22
2013-11-19,47.3,39.9,32.2,31.0,26.2,21.0,67,59,48,30.36,29.75,14,6,27,0.00
2013-11-20,40.7,31.5,24.8,21.0,19.6,18.0,80,62,40,30.65,30.36,9,3,19,0.00
2013-11-21,49.0,35.6,22.7,37.0,27.2,18.0,89,73,51,30.67,30.42,5,0,7,0.00
2013-11-22,52.7,46.4,41.3,50.0,44.2,38.0,97,92,83,30.41,29.89,7,1,13,0.16
2013-11-23,51.8,39.5,28.5,47.0,26.8,11.0,84,61,46,30.04,29.89,11,4,21,0.00
2013-11-24,28.0,24.0,21.5,13.0,6.8,0.0,64,49,30,30.33,29.96,20,7,26,0.00
2013-11-25,33.8,25.5,15.2,18.0,13.3,9.0,82,61,42,30.48,30.33,8,2,15,0.00
2013-11-26,38.1,33.8,31.1,34.0,24.3,15.0,96,70,52,30.35,29.91,5,1,8,0.45
2013-11-27,53.0,42.6,33.5,53.0,41.0,28.0,98,94,80,29.88,29.34,14,4,19,2.57
2013-11-28,33.3,28.4,23.1,26.0,17.1,13.0,78,63,48,30.49,29.68,15,4,26,0.00
2013-11-29,34.1,27.8,23.5,23.0,19.8,16.0,83,72,56,30.76,30.48,9,1,12,0.00
2013-11-30,32.8,25.9,17.2,24.0,16.1,11.0,86,68,41,30.80,30.42,4,0,9,0.00
2013-12-1,44.8,36.3,30.8,37.0,31.1,24.0,92,82,72,30.42,30.05,3,0,4,0.00
2013-12-2,42.2,33.7,29.3,37.0,31.4,28.0,96,91,78,30.04,29.92,3,0,3,0.00
2013-12-3,47.7,35.0,28.1,39.0,31.9,27.0,97,89,66,30.04,29.90,4,0,6,0.00
2013-12-4,49.5,37.2,29.1,38.0,32.7,28.0,96,85,63,30.19,30.03,2,0,5,0.01
2013-12-5,52.9,45.3,38.8,52.0,44.4,36.0,99,96,90,30.19,29.97,2,0,5,0.05
2013-12-6,52.1,42.6,33.8,52.0,40.7,32.0,99,93,79,30.17,29.89,8,2,13,0.45
2013-12-7,37.0,32.6,27.0,32.0,28.5,20.0,95,85,69,30.53,30.12,11,2,17,0.04
2013-12-8,30.6,27.6,21.7,25.0,21.2,18.0,89,77,70,30.63,30.46,4,1,9,0.00
2013-12-9,35.5,31.5,27.0,35.0,30.3,25.0,97,95,89,30.45,29.97,6,1,8,0.09
2013-12-10,35.4,30.5,19.7,33.0,28.2,18.0,97,91,82,30.09,29.85,6,1,17,0.02
2013-12-11,30.0,24.7,18.8,22.0,18.1,15.0,86,76,65,30.29,30.09,10,2,16,0.01
2013-12-12,25.5,20.0,12.0,18.0,11.8,8.0,86,71,51,30.36,30.14,9,2,12,0.00
2013-12-13,31.6,24.7,18.8,20.0,14.0,7.0,81,64,56,30.39,30.10,11,3,19,0.00
2013-12-14,22.4,19.1,15.5,20.0,14.8,12.0,91,83,66,30.55,29.98,6,2,12,0.00
2013-12-15,34.2,29.4,22.8,31.0,26.1,20.0,95,88,72,29.95,29.54,8,2,14,0.00
2013-12-16,29.0,22.7,10.3,23.0,12.4,6.0,84,66,50,30.24,29.80,15,3,22,0.00
2013-12-17,20.7,15.9,6.3,18.0,13.0,4.0,91,88,84,30.27,29.98,4,1,8,0.00
2013-12-18,33.0,26.0,19.0,24.0,20.6,16.0,88,80,65,30.16,29.96,9,2,12,0.00
2013-12-19,44.7,31.2,19.5,30.0,24.8,17.0,91,78,50,30.18,30.02,8,1,14,0.14
2013-12-20,49.0,38.1,29.7,35.0,31.9,28.0,95,79,56,30.13,29.98,6,0,9,0.39
2013-12-21,54.0,44.5,37.3,47.0,40.1,34.0,96,84,71,30.01,29.90,8,1,12,0.04
2013-12-22,65.4,57.5,40.9,62.0,54.7,40.0,99,90,77,29.97,29.78,10,2,15,0.02
2013-12-23,55.9,49.3,36.2,55.0,47.9,32.0,98,95,83,30.15,29.93,9,1,15,0.62
2013-12-24,36.0,31.0,23.9,31.0,23.8,12.0,86,75,60,30.32,30.11,9,4,16,0.00
2013-12-25,24.6,20.4,16.1,17.0,9.9,6.0,79,65,50,30.55,30.33,11,2,17,0.00
2013-12-26,32.7,27.1,21.9,27.0,22.6,16.0,92,83,77,30.47,30.17,6,1,9,0.01
2013-12-27,36.8,28.3,21.5,25.0,22.0,19.0,94,78,52,30.35,30.26,7,1,13,0.00
2013-12-28,48.7,33.9,23.6,32.0,26.4,22.0,93,76,47,30.28,30.07,5,1,15,0.00
2013-12-29,40.0,36.2,31.7,39.0,33.8,28.0,97,91,83,30.07,29.48,11,2,17,0.92
2013-12-30,40.6,30.1,16.9,36.0,24.6,10.0,97,81,64,30.22,29.69,11,3,16,0.00
2013-12-31,27.9,21.7,14.8,23.0,13.6,9.0,82,71,56,30.27,30.07,10,1,13,0.00
2014-1-1,29.4,24.1,18.2,21.0,14.9,10.0,85,69,55,30.42,30.27,10,2,18,0.00
2014-1-2,24.9,20.1,12.1,21.0,16.7,9.0,89,86,82,30.32,29.77,9,2,12,0.00